C/2016 R2 ( PanSTARRS )

Japanese version
Home page
Updated on October 22, 2018

---------------------------------------------------------------------

* Profile

Discovery Date September 7, 2016
Magnitude 19.1 mag
Discoverer Pan-STARRS 1 telescope (Haleakala)

* Pictures

* Orbital Elements

Epoch 2018 May 2.0 TT = JDT 2458240.5
T 2018 May  9.58472 TT                                  MPCW
q   2.6023594            (2000.0)            P               Q
z  +0.0014030      Peri.   33.19260     -0.14726926     -0.52443222
 +/-0.0000003      Node    80.56881     +0.61562102     -0.71221786
e   0.9963490      Incl.   58.22367     +0.77415924     +0.46660108
From 2962 observations 2016 Aug. 30-2018 Sept. 18, mean residual 0".5.

* Finding Charts

* Magnitudes Graph

        m1 = 3.5 + 5 log d + 12.0 log r

---------------------------------------------------------------------

The orbital elements are published on M.P.E.C. 2018-S50.
The charts are made with StellaNavigator Ver.10 (AstroArts).
The magnitudes graphs are made with Comet for Windows.

---------------------------------------------------------------------

Copyright(C) Seiichi Yoshida (comet@aerith.net). All rights reserved.